Year,Month,Day,Hour,Minute,Value (Times are PST for windgust in km/hr)
2022,05,13,00,00,6.40
2022,05,13,00,01,6.40
2022,05,13,00,02,14.50
2022,05,13,00,03,12.90
2022,05,13,00,04,14.50
2022,05,13,00,05,9.60
2022,05,13,00,06,8.10
2022,05,13,00,07,9.60
2022,05,13,00,08,9.60
2022,05,13,00,09,4.80
2022,05,13,00,10,6.40
2022,05,13,00,11,8.10
2022,05,13,00,12,6.40
2022,05,13,00,13,12.90
2022,05,13,00,14,16.10
2022,05,13,00,15,11.30
2022,05,13,00,16,4.80
2022,05,13,00,17,9.60
2022,05,13,00,18,3.20
2022,05,13,00,19,6.40
2022,05,13,00,20,4.80
2022,05,13,00,21,12.90
2022,05,13,00,22,14.50
2022,05,13,00,23,6.40
2022,05,13,00,24,8.10
2022,05,13,00,25,8.10
2022,05,13,00,26,12.90
2022,05,13,00,27,4.80
2022,05,13,00,28,4.80
2022,05,13,00,29,8.10
2022,05,13,00,30,6.40
2022,05,13,00,31,4.80
2022,05,13,00,32,8.10
2022,05,13,00,33,6.40
2022,05,13,00,34,6.40
2022,05,13,00,35,6.40
2022,05,13,00,36,3.20
2022,05,13,00,37,6.40
2022,05,13,00,38,9.60
2022,05,13,00,39,8.10
2022,05,13,00,40,11.30
2022,05,13,00,41,11.30
2022,05,13,00,42,9.60
2022,05,13,00,43,6.40
2022,05,13,00,44,8.10
2022,05,13,00,45,8.10
2022,05,13,00,46,11.30
2022,05,13,00,47,8.10
2022,05,13,00,48,8.10
2022,05,13,00,49,6.40
2022,05,13,00,50,8.10
2022,05,13,00,51,9.60
2022,05,13,00,52,14.50
2022,05,13,00,53,11.30
2022,05,13,00,54,9.60
2022,05,13,00,55,9.60
2022,05,13,00,56,8.10
2022,05,13,00,57,9.60
2022,05,13,00,58,11.30
2022,05,13,00,59,8.10
2022,05,13,01,00,11.30
2022,05,13,01,01,6.40
2022,05,13,01,02,11.30
2022,05,13,01,03,6.40
2022,05,13,01,04,6.40
2022,05,13,01,05,8.10
2022,05,13,01,06,9.60
2022,05,13,01,07,9.60
2022,05,13,01,08,9.60
2022,05,13,01,09,9.60
2022,05,13,01,10,11.30
2022,05,13,01,11,8.10
2022,05,13,01,12,9.60
2022,05,13,01,13,17.70
2022,05,13,01,14,9.60
2022,05,13,01,15,6.40
2022,05,13,01,16,6.40
2022,05,13,01,17,16.10
2022,05,13,01,18,9.60
2022,05,13,01,19,3.20
2022,05,13,01,20,8.10
2022,05,13,01,21,4.80
2022,05,13,01,22,9.60
2022,05,13,01,23,11.30
2022,05,13,01,24,8.10
2022,05,13,01,25,6.40
2022,05,13,01,26,6.40
2022,05,13,01,27,12.90
2022,05,13,01,28,9.60
2022,05,13,01,29,8.10
2022,05,13,01,30,12.90
2022,05,13,01,31,6.40
2022,05,13,01,32,12.90
2022,05,13,01,33,11.30
2022,05,13,01,34,12.90
2022,05,13,01,35,9.60
2022,05,13,01,36,9.60
2022,05,13,01,37,11.30
2022,05,13,01,38,8.10
2022,05,13,01,39,12.90
2022,05,13,01,40,4.80
2022,05,13,01,41,6.40
2022,05,13,01,42,1.60
2022,05,13,01,43,6.40
2022,05,13,01,44,6.40
2022,05,13,01,45,3.20
2022,05,13,01,46,8.10
2022,05,13,01,47,4.80
2022,05,13,01,48,1.60
2022,05,13,01,49,3.20
2022,05,13,01,50,3.20
2022,05,13,01,51,3.20
2022,05,13,01,52,1.60
2022,05,13,01,53,1.60
2022,05,13,01,54,1.60
2022,05,13,01,55,3.20
2022,05,13,01,56,1.60
2022,05,13,01,57,3.20
2022,05,13,01,58,1.60
2022,05,13,01,59,4.80
2022,05,13,02,00,3.20
2022,05,13,02,01,4.80
2022,05,13,02,02,1.60
2022,05,13,02,04,4.80
2022,05,13,02,05,6.40
2022,05,13,02,06,3.20
2022,05,13,02,07,3.20
2022,05,13,02,08,3.20
2022,05,13,02,09,4.80
2022,05,13,02,10,4.80
2022,05,13,02,11,11.30
2022,05,13,02,12,6.40
2022,05,13,02,13,4.80
2022,05,13,02,14,3.20
2022,05,13,02,15,1.60
2022,05,13,02,16,6.40
2022,05,13,02,17,6.40
2022,05,13,02,18,1.60
2022,05,13,02,19,4.80
2022,05,13,02,20,6.40
2022,05,13,02,21,4.80
2022,05,13,02,22,8.10
2022,05,13,02,23,6.40
2022,05,13,02,24,3.20
2022,05,13,02,25,1.60
2022,05,13,02,26,1.60
2022,05,13,02,27,1.60
2022,05,13,02,28,4.80
2022,05,13,02,29,3.20
2022,05,13,02,30,1.60
2022,05,13,02,31,4.80
2022,05,13,02,32,8.10
2022,05,13,02,33,3.20
2022,05,13,02,34,3.20
2022,05,13,02,35,1.60
2022,05,13,02,37,3.20
2022,05,13,02,38,1.60
2022,05,13,02,39,3.20
2022,05,13,02,40,4.80
2022,05,13,02,41,1.60
2022,05,13,02,42,4.80
2022,05,13,02,43,1.60
2022,05,13,02,44,1.60
2022,05,13,02,45,1.60
2022,05,13,02,46,1.60
2022,05,13,02,47,3.20
2022,05,13,02,48,3.20
2022,05,13,02,49,1.60
2022,05,13,02,50,3.20
2022,05,13,02,51,3.20
2022,05,13,02,52,3.20
2022,05,13,02,53,6.40
2022,05,13,02,54,4.80
2022,05,13,02,55,9.60
2022,05,13,02,56,3.20
2022,05,13,02,57,3.20
2022,05,13,02,58,6.40
2022,05,13,02,59,6.40
2022,05,13,03,00,4.80
2022,05,13,03,01,3.20
2022,05,13,03,02,6.40
2022,05,13,03,03,6.40
2022,05,13,03,04,4.80
2022,05,13,03,05,3.20
2022,05,13,03,06,8.10
2022,05,13,03,07,4.80
2022,05,13,03,08,4.80
2022,05,13,03,09,3.20
2022,05,13,03,10,6.40
2022,05,13,03,11,4.80
2022,05,13,03,12,3.20
2022,05,13,03,13,3.20
2022,05,13,03,14,4.80
2022,05,13,03,15,3.20
2022,05,13,03,16,3.20
2022,05,13,03,17,4.80
2022,05,13,03,18,6.40
2022,05,13,03,19,3.20
2022,05,13,03,20,3.20
2022,05,13,03,21,6.40
2022,05,13,03,22,6.40
2022,05,13,03,23,4.80
2022,05,13,03,24,4.80
2022,05,13,03,25,6.40
2022,05,13,03,26,6.40
2022,05,13,03,27,4.80
2022,05,13,03,28,3.20
2022,05,13,03,29,6.40
2022,05,13,03,30,6.40
2022,05,13,03,31,6.40
2022,05,13,03,32,6.40
2022,05,13,03,33,6.40
2022,05,13,03,34,8.10
2022,05,13,03,35,4.80
2022,05,13,03,36,4.80
2022,05,13,03,37,6.40
2022,05,13,03,38,6.40
2022,05,13,03,39,6.40
2022,05,13,03,40,4.80
2022,05,13,03,41,4.80
2022,05,13,03,42,4.80
2022,05,13,03,43,6.40
2022,05,13,03,44,6.40
2022,05,13,03,45,6.40
2022,05,13,03,46,3.20
2022,05,13,03,47,4.80
2022,05,13,03,48,1.60
2022,05,13,03,49,3.20
2022,05,13,03,50,4.80
2022,05,13,03,51,4.80
2022,05,13,03,52,6.40
2022,05,13,03,53,4.80
2022,05,13,03,54,8.10
2022,05,13,03,55,6.40
2022,05,13,03,56,6.40
2022,05,13,03,57,8.10
2022,05,13,03,58,6.40
2022,05,13,03,59,3.20
2022,05,13,04,00,4.80
2022,05,13,04,01,3.20
2022,05,13,04,02,3.20
2022,05,13,04,03,3.20
2022,05,13,04,04,8.10
2022,05,13,04,05,6.40
2022,05,13,04,06,8.10
2022,05,13,04,07,3.20
2022,05,13,04,08,4.80
2022,05,13,04,09,4.80
2022,05,13,04,10,6.40
2022,05,13,04,11,6.40
2022,05,13,04,12,8.10
2022,05,13,04,13,8.10
2022,05,13,04,14,8.10
2022,05,13,04,15,3.20
2022,05,13,04,16,1.60
2022,05,13,04,17,4.80
2022,05,13,04,18,4.80
2022,05,13,04,19,1.60
2022,05,13,04,20,4.80
2022,05,13,04,21,6.40
2022,05,13,04,22,6.40
2022,05,13,04,23,4.80
2022,05,13,04,24,4.80
2022,05,13,04,25,6.40
2022,05,13,04,26,4.80
2022,05,13,04,27,4.80
2022,05,13,04,28,4.80
2022,05,13,04,29,6.40
2022,05,13,04,30,4.80
2022,05,13,04,31,6.40
2022,05,13,04,32,3.20
2022,05,13,04,33,3.20
2022,05,13,04,35,3.20
2022,05,13,04,36,1.60
2022,05,13,04,37,4.80
2022,05,13,04,38,3.20
2022,05,13,04,39,3.20
2022,05,13,04,40,4.80
2022,05,13,04,41,1.60
2022,05,13,04,43,1.60
2022,05,13,04,44,1.60
2022,05,13,04,46,6.40
2022,05,13,04,47,4.80
2022,05,13,04,48,3.20
2022,05,13,04,49,3.20
2022,05,13,04,51,1.60
2022,05,13,04,52,3.20
2022,05,13,04,53,3.20
2022,05,13,04,54,6.40
2022,05,13,04,55,3.20
2022,05,13,04,57,3.20
2022,05,13,04,58,1.60
2022,05,13,04,59,1.60
2022,05,13,05,00,3.20
2022,05,13,05,01,3.20
2022,05,13,05,02,6.40
2022,05,13,05,03,4.80
2022,05,13,05,04,4.80
2022,05,13,05,05,4.80
2022,05,13,05,06,4.80
2022,05,13,05,07,3.20
2022,05,13,05,22,3.20
2022,05,13,05,23,3.20
2022,05,13,05,24,3.20
2022,05,13,05,25,3.20
2022,05,13,05,26,3.20
2022,05,13,05,27,3.20
2022,05,13,05,28,4.80
2022,05,13,05,29,3.20
2022,05,13,05,30,3.20
2022,05,13,05,31,1.60
2022,05,13,05,32,1.60
2022,05,13,05,33,1.60
2022,05,13,05,38,1.60
2022,05,13,05,39,1.60
2022,05,13,05,40,1.60
2022,05,13,05,59,3.20
2022,05,13,06,00,3.20
2022,05,13,06,01,1.60
2022,05,13,06,02,1.60
2022,05,13,06,03,1.60
2022,05,13,06,04,3.20
2022,05,13,06,05,6.40
2022,05,13,06,06,6.40
2022,05,13,06,07,3.20
2022,05,13,06,08,1.60
2022,05,13,06,10,3.20
2022,05,13,06,11,8.10
2022,05,13,06,12,6.40
2022,05,13,06,13,4.80
2022,05,13,06,14,3.20
2022,05,13,06,15,4.80
2022,05,13,06,16,3.20
2022,05,13,06,17,4.80
2022,05,13,06,18,3.20
2022,05,13,06,19,3.20
2022,05,13,06,20,3.20
2022,05,13,06,21,1.60
2022,05,13,06,22,1.60
2022,05,13,06,23,3.20
2022,05,13,06,24,1.60
2022,05,13,06,28,1.60
2022,05,13,06,31,3.20
2022,05,13,06,32,6.40
2022,05,13,06,33,3.20
2022,05,13,06,34,3.20
2022,05,13,06,35,3.20
2022,05,13,06,36,3.20
2022,05,13,06,37,1.60
2022,05,13,06,40,1.60
2022,05,13,06,41,1.60
2022,05,13,06,42,1.60
2022,05,13,06,43,1.60
2022,05,13,06,44,3.20
2022,05,13,06,45,3.20
2022,05,13,06,46,3.20
2022,05,13,06,47,3.20
2022,05,13,06,48,4.80
2022,05,13,06,49,6.40
2022,05,13,06,50,3.20
2022,05,13,06,51,3.20
2022,05,13,06,52,4.80
2022,05,13,06,53,3.20
2022,05,13,06,54,3.20
2022,05,13,06,55,4.80
2022,05,13,06,56,8.10
2022,05,13,06,57,9.60
2022,05,13,06,58,11.30
2022,05,13,06,59,6.40
2022,05,13,07,00,8.10
2022,05,13,07,01,11.30
2022,05,13,07,02,11.30
2022,05,13,07,03,6.40
2022,05,13,07,04,11.30
2022,05,13,07,05,8.10
2022,05,13,07,06,4.80
2022,05,13,07,07,9.60
2022,05,13,07,08,6.40
2022,05,13,07,09,4.80
2022,05,13,07,10,3.20
2022,05,13,07,11,8.10
2022,05,13,07,12,8.10
2022,05,13,07,13,4.80
2022,05,13,07,14,6.40
2022,05,13,07,15,6.40
2022,05,13,07,16,4.80
2022,05,13,07,17,8.10
2022,05,13,07,18,9.60
2022,05,13,07,19,4.80
2022,05,13,07,20,9.60
2022,05,13,07,21,4.80
2022,05,13,07,22,3.20
2022,05,13,07,24,8.10
2022,05,13,07,25,11.30
2022,05,13,07,26,6.40
2022,05,13,07,27,9.60
2022,05,13,07,28,9.60
2022,05,13,07,29,4.80
2022,05,13,07,30,11.30
2022,05,13,07,31,14.50
2022,05,13,07,32,9.60
2022,05,13,07,33,8.10
2022,05,13,07,34,9.60
2022,05,13,07,35,9.60
2022,05,13,07,36,11.30
2022,05,13,07,37,6.40
2022,05,13,07,38,8.10
2022,05,13,07,39,9.60
2022,05,13,07,40,9.60
2022,05,13,07,41,8.10
2022,05,13,07,42,12.90
2022,05,13,07,43,9.60
2022,05,13,07,44,9.60
2022,05,13,07,45,8.10
2022,05,13,07,46,6.40
2022,05,13,07,47,6.40
2022,05,13,07,48,4.80
2022,05,13,07,49,9.60
2022,05,13,07,50,11.30
2022,05,13,07,51,9.60
2022,05,13,07,52,6.40
2022,05,13,07,53,6.40
2022,05,13,07,54,8.10
2022,05,13,07,55,9.60
2022,05,13,07,56,8.10
2022,05,13,07,57,11.30
2022,05,13,07,58,9.60
2022,05,13,07,59,11.30
2022,05,13,08,00,11.30
2022,05,13,08,01,6.40
2022,05,13,08,02,8.10
2022,05,13,08,03,8.10
2022,05,13,08,04,6.40
2022,05,13,08,05,8.10
2022,05,13,08,06,4.80
2022,05,13,08,07,3.20
2022,05,13,08,08,4.80
2022,05,13,08,09,4.80
2022,05,13,08,10,6.40
2022,05,13,08,11,11.30
2022,05,13,08,12,11.30
2022,05,13,08,13,8.10
2022,05,13,08,14,14.50
2022,05,13,08,15,8.10
2022,05,13,08,16,9.60
2022,05,13,08,17,11.30
2022,05,13,08,18,9.60
2022,05,13,08,19,8.10
2022,05,13,08,20,12.90
2022,05,13,08,21,11.30
2022,05,13,08,22,11.30
2022,05,13,08,23,14.50
2022,05,13,08,24,11.30
2022,05,13,08,25,14.50
2022,05,13,08,26,12.90
2022,05,13,08,27,11.30
2022,05,13,08,28,9.60
2022,05,13,08,29,9.60
2022,05,13,08,30,6.40
2022,05,13,08,31,9.60
2022,05,13,08,32,8.10
2022,05,13,08,33,12.90
2022,05,13,08,34,11.30
2022,05,13,08,35,16.10
2022,05,13,08,36,16.10
2022,05,13,08,37,14.50
2022,05,13,08,38,9.60
2022,05,13,08,39,12.90
2022,05,13,08,40,16.10
2022,05,13,08,41,17.70
2022,05,13,08,42,16.10
2022,05,13,08,43,17.70
2022,05,13,08,44,19.30
2022,05,13,08,45,16.10
2022,05,13,08,46,16.10
2022,05,13,08,47,17.70
2022,05,13,08,48,16.10
2022,05,13,08,49,19.30
2022,05,13,08,50,16.10
2022,05,13,08,51,16.10
2022,05,13,08,52,19.30
2022,05,13,08,53,20.90
2022,05,13,08,54,19.30
2022,05,13,08,55,17.70
2022,05,13,08,56,20.90
2022,05,13,08,57,17.70
2022,05,13,08,58,19.30
2022,05,13,08,59,22.50
2022,05,13,09,00,19.30
2022,05,13,09,01,17.70
2022,05,13,09,02,20.90
2022,05,13,09,03,25.70
2022,05,13,09,04,27.40
2022,05,13,09,05,27.40
2022,05,13,09,06,24.20
2022,05,13,09,07,27.40
2022,05,13,09,08,25.70
2022,05,13,09,09,25.70
2022,05,13,09,10,24.20
2022,05,13,09,11,22.50
2022,05,13,09,12,27.40
2022,05,13,09,13,25.70
2022,05,13,09,14,29.00
2022,05,13,09,15,25.70
2022,05,13,09,16,30.60
2022,05,13,09,17,27.40
2022,05,13,09,18,25.70
2022,05,13,09,19,27.40
2022,05,13,09,20,27.40
2022,05,13,09,21,25.70
2022,05,13,09,22,30.60
2022,05,13,09,23,24.20
2022,05,13,09,24,29.00
2022,05,13,09,25,27.40
2022,05,13,09,26,27.40
2022,05,13,09,27,20.90
2022,05,13,09,28,22.50
2022,05,13,09,29,22.50
2022,05,13,09,30,27.40
2022,05,13,09,31,24.20
2022,05,13,09,32,25.70
2022,05,13,09,33,22.50
2022,05,13,09,34,25.70
2022,05,13,09,35,22.50
2022,05,13,09,36,22.50
2022,05,13,09,37,20.90
2022,05,13,09,38,27.40
2022,05,13,09,39,25.70
2022,05,13,09,40,25.70
2022,05,13,09,41,24.20
2022,05,13,09,42,27.40
2022,05,13,09,43,27.40
2022,05,13,09,44,29.00
2022,05,13,09,45,24.20
2022,05,13,09,46,27.40
2022,05,13,09,47,27.40
2022,05,13,09,48,27.40
2022,05,13,09,49,25.70
2022,05,13,09,50,27.40
2022,05,13,09,51,27.40
2022,05,13,09,52,27.40
2022,05,13,09,53,32.20
2022,05,13,09,54,32.20
2022,05,13,09,55,30.60
2022,05,13,09,56,27.40
2022,05,13,09,57,25.70
2022,05,13,09,58,30.60
2022,05,13,09,59,29.00
2022,05,13,10,00,33.80
2022,05,13,10,01,33.80
2022,05,13,10,02,33.80
2022,05,13,10,03,33.80
2022,05,13,10,04,32.20
2022,05,13,10,05,32.20
2022,05,13,10,06,33.80
2022,05,13,10,07,30.60
2022,05,13,10,08,38.60
2022,05,13,10,09,33.80
2022,05,13,10,10,33.80
2022,05,13,10,11,33.80
2022,05,13,10,12,30.60
2022,05,13,10,13,29.00
2022,05,13,10,14,30.60
2022,05,13,10,15,35.40
2022,05,13,10,16,32.20
2022,05,13,10,17,30.60
2022,05,13,10,18,32.20
2022,05,13,10,19,29.00
2022,05,13,10,20,33.80
2022,05,13,10,21,32.20
2022,05,13,10,22,32.20
2022,05,13,10,23,35.40
2022,05,13,10,24,30.60
2022,05,13,10,25,30.60
2022,05,13,10,26,29.00
2022,05,13,10,27,33.80
2022,05,13,10,28,27.40
2022,05,13,10,29,29.00
2022,05,13,10,30,29.00
2022,05,13,10,31,30.60
2022,05,13,10,32,29.00
2022,05,13,10,33,29.00
2022,05,13,10,34,32.20
2022,05,13,10,35,29.00
2022,05,13,10,36,27.40
2022,05,13,10,37,29.00
2022,05,13,10,38,33.80
2022,05,13,10,39,33.80
2022,05,13,10,40,32.20
2022,05,13,10,41,32.20
2022,05,13,10,42,29.00
2022,05,13,10,43,33.80
2022,05,13,10,44,27.40
2022,05,13,10,45,32.20
2022,05,13,10,46,30.60
2022,05,13,10,47,35.40
2022,05,13,10,48,32.20
2022,05,13,10,49,32.20
2022,05,13,10,50,29.00
2022,05,13,10,51,32.20
2022,05,13,10,52,30.60
2022,05,13,10,53,27.40
2022,05,13,10,54,30.60
2022,05,13,10,55,30.60
2022,05,13,10,56,30.60
2022,05,13,10,57,25.70
2022,05,13,10,58,27.40
2022,05,13,10,59,25.70
2022,05,13,11,00,30.60
2022,05,13,11,01,27.40
2022,05,13,11,02,29.00
2022,05,13,11,03,29.00
2022,05,13,11,04,32.20
2022,05,13,11,05,29.00
2022,05,13,11,06,25.70
2022,05,13,11,07,25.70
2022,05,13,11,08,25.70
2022,05,13,11,09,24.20
2022,05,13,11,10,25.70
2022,05,13,11,11,24.20
2022,05,13,11,12,24.20
2022,05,13,11,13,25.70
2022,05,13,11,14,29.00
2022,05,13,11,15,27.40
2022,05,13,11,16,25.70
2022,05,13,11,17,25.70
2022,05,13,11,18,27.40
2022,05,13,11,19,25.70
2022,05,13,11,20,25.70
2022,05,13,11,21,29.00
2022,05,13,11,22,27.40
2022,05,13,11,23,24.20
2022,05,13,11,24,24.20
2022,05,13,11,25,22.50
2022,05,13,11,26,25.70
2022,05,13,11,27,24.20
2022,05,13,11,28,25.70
2022,05,13,11,29,27.40
2022,05,13,11,30,27.40
2022,05,13,11,31,24.20
2022,05,13,11,32,24.20
2022,05,13,11,33,25.70
2022,05,13,11,34,24.20
2022,05,13,11,35,24.20
2022,05,13,11,36,24.20
2022,05,13,11,37,24.20
2022,05,13,11,38,22.50
2022,05,13,11,39,22.50
2022,05,13,11,40,25.70
2022,05,13,11,41,22.50
2022,05,13,11,42,22.50
2022,05,13,11,43,24.20
2022,05,13,11,44,22.50
2022,05,13,11,45,20.90
2022,05,13,11,46,20.90
2022,05,13,11,47,20.90
2022,05,13,11,48,24.20
2022,05,13,11,49,22.50
2022,05,13,11,50,20.90
2022,05,13,11,51,24.20
2022,05,13,11,52,19.30
2022,05,13,11,53,22.50
2022,05,13,11,54,22.50
2022,05,13,11,55,20.90
2022,05,13,11,56,17.70
2022,05,13,11,57,20.90
2022,05,13,11,58,20.90
2022,05,13,11,59,22.50
2022,05,13,12,00,17.70
2022,05,13,12,01,17.70
2022,05,13,12,02,19.30
2022,05,13,12,03,19.30
2022,05,13,12,04,17.70
2022,05,13,12,05,17.70
2022,05,13,12,06,19.30
2022,05,13,12,07,19.30
2022,05,13,12,08,19.30
2022,05,13,12,09,19.30
2022,05,13,12,10,20.90
2022,05,13,12,11,22.50
2022,05,13,12,12,24.20
2022,05,13,12,13,20.90
2022,05,13,12,14,22.50
2022,05,13,12,15,22.50
2022,05,13,12,16,22.50
2022,05,13,12,17,20.90
2022,05,13,12,18,20.90
2022,05,13,12,19,24.20
2022,05,13,12,20,22.50
2022,05,13,12,21,22.50
2022,05,13,12,22,24.20
2022,05,13,12,23,22.50
2022,05,13,12,24,22.50
2022,05,13,12,25,24.20
2022,05,13,12,26,22.50
2022,05,13,12,27,22.50
2022,05,13,12,28,20.90
2022,05,13,12,29,20.90
2022,05,13,12,30,19.30
2022,05,13,12,31,19.30
2022,05,13,12,32,17.70
2022,05,13,12,33,17.70
2022,05,13,12,34,19.30
2022,05,13,12,35,20.90
2022,05,13,12,36,19.30
2022,05,13,12,37,19.30
2022,05,13,12,38,19.30
2022,05,13,12,39,19.30
2022,05,13,12,40,19.30
2022,05,13,12,41,19.30
2022,05,13,12,42,19.30
2022,05,13,12,43,16.10
2022,05,13,12,44,20.90
2022,05,13,12,45,17.70
2022,05,13,12,46,20.90
2022,05,13,12,47,17.70
2022,05,13,12,48,19.30
2022,05,13,12,49,16.10
2022,05,13,12,50,22.50
2022,05,13,12,51,19.30
2022,05,13,12,52,22.50
2022,05,13,12,53,22.50
2022,05,13,12,54,19.30
2022,05,13,12,55,22.50
2022,05,13,12,56,22.50
2022,05,13,12,57,20.90
2022,05,13,12,58,22.50
2022,05,13,12,59,20.90
2022,05,13,13,00,20.90
2022,05,13,13,01,19.30
2022,05,13,13,02,19.30
2022,05,13,13,03,20.90
2022,05,13,13,04,22.50
2022,05,13,13,05,24.20
2022,05,13,13,06,19.30
2022,05,13,13,07,20.90
2022,05,13,13,08,20.90
2022,05,13,13,09,20.90
2022,05,13,13,10,24.20
2022,05,13,13,11,20.90
2022,05,13,13,12,22.50
2022,05,13,13,13,19.30
2022,05,13,13,14,19.30
2022,05,13,13,15,19.30
2022,05,13,13,16,20.90
2022,05,13,13,17,20.90
2022,05,13,13,18,20.90
2022,05,13,13,19,22.50
2022,05,13,13,20,22.50
2022,05,13,13,21,19.30
2022,05,13,13,22,20.90
2022,05,13,13,23,22.50
2022,05,13,13,24,24.20
2022,05,13,13,25,25.70
2022,05,13,13,26,24.20
2022,05,13,13,27,22.50
2022,05,13,13,28,24.20
2022,05,13,13,29,24.20
2022,05,13,13,30,24.20
2022,05,13,13,31,24.20
2022,05,13,13,32,22.50
2022,05,13,13,33,22.50
2022,05,13,13,34,25.70
2022,05,13,13,35,22.50
2022,05,13,13,36,25.70
2022,05,13,13,37,17.70
2022,05,13,13,38,22.50
2022,05,13,13,39,20.90
2022,05,13,13,40,22.50
2022,05,13,13,41,25.70
2022,05,13,13,42,24.20
2022,05,13,13,43,22.50
2022,05,13,13,44,25.70
2022,05,13,13,45,25.70
2022,05,13,13,46,24.20
2022,05,13,13,47,22.50
2022,05,13,13,48,24.20
2022,05,13,13,49,22.50
2022,05,13,13,50,20.90
2022,05,13,13,51,20.90
2022,05,13,13,52,22.50
2022,05,13,13,53,20.90
2022,05,13,13,54,19.30
2022,05,13,13,55,19.30
2022,05,13,13,56,24.20
2022,05,13,13,57,19.30
2022,05,13,13,58,19.30
2022,05,13,13,59,22.50
2022,05,13,14,00,19.30
2022,05,13,14,01,17.70
2022,05,13,14,02,17.70
2022,05,13,14,03,19.30
2022,05,13,14,04,17.70
2022,05,13,14,05,16.10
2022,05,13,14,06,20.90
2022,05,13,14,07,20.90
2022,05,13,14,08,19.30
2022,05,13,14,09,19.30
2022,05,13,14,10,22.50
2022,05,13,14,11,22.50
2022,05,13,14,12,20.90
2022,05,13,14,13,24.20
2022,05,13,14,14,25.70
2022,05,13,14,15,22.50
2022,05,13,14,16,24.20
2022,05,13,14,17,22.50
2022,05,13,14,18,24.20
2022,05,13,14,19,22.50
2022,05,13,14,20,20.90
2022,05,13,14,21,24.20
2022,05,13,14,22,22.50
2022,05,13,14,23,24.20
2022,05,13,14,24,22.50
2022,05,13,14,25,22.50
2022,05,13,14,26,20.90
2022,05,13,14,27,22.50
2022,05,13,14,28,22.50
2022,05,13,14,29,20.90
2022,05,13,14,30,24.20
2022,05,13,14,31,22.50
2022,05,13,14,32,22.50
2022,05,13,14,33,20.90
2022,05,13,14,34,20.90
2022,05,13,14,35,22.50
2022,05,13,14,36,20.90
2022,05,13,14,37,19.30
2022,05,13,14,38,20.90
2022,05,13,14,39,19.30
2022,05,13,14,40,19.30
2022,05,13,14,41,20.90
2022,05,13,14,42,20.90
2022,05,13,14,43,20.90
2022,05,13,14,44,20.90
2022,05,13,14,45,20.90
2022,05,13,14,46,19.30
2022,05,13,14,47,20.90
2022,05,13,14,48,20.90
2022,05,13,14,49,17.70
2022,05,13,14,50,17.70
2022,05,13,14,51,17.70
2022,05,13,14,52,17.70
2022,05,13,14,53,19.30
2022,05,13,14,54,17.70
2022,05,13,14,55,17.70
2022,05,13,14,56,17.70
2022,05,13,14,57,16.10
2022,05,13,14,58,16.10
2022,05,13,14,59,14.50
2022,05,13,15,00,14.50
2022,05,13,15,01,16.10
2022,05,13,15,02,16.10
2022,05,13,15,03,11.30
2022,05,13,15,04,12.90
2022,05,13,15,05,14.50
2022,05,13,15,06,11.30
2022,05,13,15,07,14.50
2022,05,13,15,08,14.50
2022,05,13,15,09,14.50
2022,05,13,15,10,14.50
2022,05,13,15,11,11.30
2022,05,13,15,12,19.30
2022,05,13,15,13,17.70
2022,05,13,15,14,16.10
2022,05,13,15,15,14.50
2022,05,13,15,16,14.50
2022,05,13,15,17,14.50
2022,05,13,15,18,14.50
2022,05,13,15,19,14.50
2022,05,13,15,20,14.50
2022,05,13,15,21,16.10
2022,05,13,15,22,16.10
2022,05,13,15,23,17.70
2022,05,13,15,24,14.50
2022,05,13,15,25,14.50
2022,05,13,15,26,17.70
2022,05,13,15,27,17.70
2022,05,13,15,28,14.50
2022,05,13,15,29,16.10
2022,05,13,15,30,16.10
2022,05,13,15,31,14.50
2022,05,13,15,32,12.90
2022,05,13,15,33,17.70
2022,05,13,15,34,19.30
2022,05,13,15,35,20.90
2022,05,13,15,36,19.30
2022,05,13,15,37,16.10
2022,05,13,15,38,17.70
2022,05,13,15,39,16.10
2022,05,13,15,40,19.30
2022,05,13,15,41,19.30
2022,05,13,15,42,17.70
2022,05,13,15,43,16.10
2022,05,13,15,44,16.10
2022,05,13,15,45,17.70
2022,05,13,15,46,16.10
2022,05,13,15,47,16.10
2022,05,13,15,48,16.10
2022,05,13,15,49,17.70
2022,05,13,15,50,17.70
2022,05,13,15,51,17.70
2022,05,13,15,52,17.70
2022,05,13,15,53,17.70
2022,05,13,15,54,16.10
2022,05,13,15,55,14.50
2022,05,13,15,56,16.10
2022,05,13,15,57,14.50
2022,05,13,15,58,16.10
2022,05,13,15,59,14.50
2022,05,13,16,00,14.50
2022,05,13,16,01,14.50
2022,05,13,16,02,14.50
2022,05,13,16,03,11.30
2022,05,13,16,04,14.50
2022,05,13,16,05,14.50
2022,05,13,16,06,12.90
2022,05,13,16,07,11.30
2022,05,13,16,08,8.10
2022,05,13,16,09,4.80
2022,05,13,16,10,4.80
2022,05,13,16,11,6.40
2022,05,13,16,12,4.80
2022,05,13,16,13,4.80
2022,05,13,16,14,3.20
2022,05,13,16,15,1.60
2022,05,13,16,17,1.60
2022,05,13,16,18,3.20
2022,05,13,16,19,3.20
2022,05,13,16,20,6.40
2022,05,13,16,21,9.60
2022,05,13,16,22,6.40
2022,05,13,16,23,6.40
2022,05,13,16,24,6.40
2022,05,13,16,25,4.80
2022,05,13,16,26,4.80
2022,05,13,16,27,3.20
2022,05,13,16,28,3.20
2022,05,13,16,29,4.80
2022,05,13,16,30,3.20
2022,05,13,16,31,3.20
2022,05,13,16,32,3.20
2022,05,13,16,33,3.20
2022,05,13,16,34,4.80
2022,05,13,16,35,4.80
2022,05,13,16,36,3.20
2022,05,13,16,37,3.20
2022,05,13,16,38,3.20
2022,05,13,16,39,3.20
2022,05,13,16,40,3.20
2022,05,13,16,41,3.20
2022,05,13,16,42,3.20
2022,05,13,16,43,4.80
2022,05,13,16,44,4.80
2022,05,13,16,45,4.80
2022,05,13,16,46,4.80
2022,05,13,16,47,4.80
2022,05,13,16,48,4.80
2022,05,13,16,49,4.80
2022,05,13,16,50,4.80
2022,05,13,16,51,4.80
2022,05,13,16,52,3.20
2022,05,13,16,53,3.20
2022,05,13,16,54,3.20
2022,05,13,16,55,3.20
2022,05,13,16,56,3.20
2022,05,13,16,57,3.20
2022,05,13,16,58,3.20
2022,05,13,16,59,3.20
2022,05,13,17,00,3.20
2022,05,13,17,01,3.20
2022,05,13,17,02,3.20
2022,05,13,17,03,3.20
2022,05,13,17,04,3.20
2022,05,13,17,05,3.20
2022,05,13,17,06,3.20
2022,05,13,17,07,3.20
2022,05,13,17,08,3.20
2022,05,13,17,09,3.20
2022,05,13,17,10,3.20
2022,05,13,17,11,3.20
2022,05,13,17,12,1.60
2022,05,13,17,13,3.20
2022,05,13,17,14,3.20
2022,05,13,17,15,3.20
2022,05,13,17,16,4.80
2022,05,13,17,17,3.20
2022,05,13,17,18,3.20
2022,05,13,17,19,3.20
2022,05,13,17,20,4.80
2022,05,13,17,21,4.80
2022,05,13,17,22,4.80
2022,05,13,17,23,4.80
2022,05,13,17,24,4.80
2022,05,13,17,25,4.80
2022,05,13,17,26,4.80
2022,05,13,17,27,4.80
2022,05,13,17,28,4.80
2022,05,13,17,29,4.80
2022,05,13,17,30,4.80
2022,05,13,17,31,4.80
2022,05,13,17,32,4.80
2022,05,13,17,33,3.20
2022,05,13,17,34,3.20
2022,05,13,17,35,3.20
2022,05,13,17,36,3.20
2022,05,13,17,37,3.20
2022,05,13,17,38,1.60
2022,05,13,18,25,3.20
2022,05,13,18,26,4.80
2022,05,13,18,27,6.40
2022,05,13,18,28,4.80
2022,05,13,18,29,4.80
2022,05,13,18,30,3.20
2022,05,13,18,31,3.20
2022,05,13,18,32,4.80
2022,05,13,18,33,3.20
2022,05,13,18,34,4.80
2022,05,13,18,35,4.80
2022,05,13,18,36,4.80
2022,05,13,18,37,4.80
2022,05,13,18,38,4.80
2022,05,13,18,39,3.20
2022,05,13,18,40,3.20
2022,05,13,18,41,3.20
2022,05,13,18,42,3.20
2022,05,13,18,43,4.80
2022,05,13,18,44,4.80
2022,05,13,18,45,4.80
2022,05,13,18,46,4.80
2022,05,13,18,47,4.80
2022,05,13,18,48,4.80
2022,05,13,18,49,4.80
2022,05,13,18,50,4.80
2022,05,13,18,51,4.80
2022,05,13,18,52,4.80
2022,05,13,18,53,4.80
2022,05,13,18,54,4.80
2022,05,13,18,55,4.80
2022,05,13,18,56,3.20
2022,05,13,18,57,3.20
2022,05,13,18,58,3.20
2022,05,13,18,59,3.20
2022,05,13,19,00,4.80
2022,05,13,19,01,3.20
2022,05,13,19,02,3.20
2022,05,13,19,03,3.20
2022,05,13,19,04,3.20
2022,05,13,19,05,1.60
2022,05,13,19,06,1.60
2022,05,13,19,07,3.20
2022,05,13,19,08,3.20
2022,05,13,19,09,4.80
2022,05,13,19,10,6.40
2022,05,13,19,11,6.40
2022,05,13,19,12,8.10
2022,05,13,19,13,8.10
2022,05,13,19,14,8.10
2022,05,13,19,15,6.40
2022,05,13,19,16,6.40
2022,05,13,19,17,6.40
2022,05,13,19,18,4.80
2022,05,13,19,19,4.80
2022,05,13,19,20,6.40
2022,05,13,19,21,8.10
2022,05,13,19,22,8.10